Regional Weather Roundup
Issued by NWS Green Bay, WI

Home | Current Version | Previous Version | Graphics & Text | Print | Product List | Glossary Off
Versions: 1 2 3 4 5 6 7 8 9 10 11 12 13 14 15 16 17 18 19 20 21 22 23 24 25 26 27 28 29 30 31 32 33 34 35 36 37 38 39 40 41 42 43 44 45 46 47 48 49 50

000
ASUS43 KGRB 070800
RWRGRB

NORTH-CENTRAL AND NORTHEAST WISCONSIN REGIONAL WEATHER ROUNDUP
NATIONAL WEATHER SERVICE GREEN BAY WI
300 AM CDT TUE JUL 07 2015

WIZ005-009-010>012-018-019-070900-
NORTH CENTRAL WISCONSIN

CITY           SKY/WX    TMP DP  RH WIND       PRES   REMARKS
IRONWOOD       CLOUDY    52  48  87 N5        30.00R
MANITOWISH WTR NOT AVBL
ARBOR VITAE    NOT AVBL
EAGLE RIVER    NOT AVBL
LAND O LAKES   NOT AVBL
RHINELANDER    CLOUDY    53  47  79 N9        30.00R
PHILLIPS       NOT AVBL
ANTIGO         NOT AVBL
TOMAHAWK       NOT AVBL
MERRILL        NOT AVBL
$$

WIZ013-073-070900-
NORTHEAST WISCONSIN

CITY           SKY/WX    TMP DP  RH WIND       PRES   REMARKS
IRON MOUNTAIN  CLOUDY    55  49  80 NW10      29.94R
MARINETTE      CLOUDY    57  48  72 N9G17     29.91R
$$

WIZ017-030-035>037-045-070900-
CENTRAL WISCONSIN

CITY           SKY/WX    TMP DP  RH WIND       PRES   REMARKS
MEDFORD        NOT AVBL
WAUSAU         MOCLDY    56  53  90 NW8       29.96R FOG
MOSINEE        NOT AVBL
MARSHFIELD     CLEAR     56  52  86 N9        29.99R FOG
WISC RAPIDS    PTCLDY    57  53  86 N9        29.97R FOG
STEVENS POINT  NOT AVBL
WAUPACA        NOT AVBL
SHAWANO        NOT AVBL
CLINTONVILLE   NOT AVBL
$$

WIZ038-039-048-051-070900-
FOX VALLEY

CITY           SKY/WX    TMP DP  RH WIND       PRES   REMARKS
NWS GREEN BAY  CLOUDY    62  57  83 N9        29.92R HAZE
APPLETON       NOT AVBL
OSHKOSH        CLOUDY    62  56  80 N7        29.92R HAZE
FOND DU LAC    LGT RAIN  61  58  90 N8        29.92R FOG
$$

WIZ022-050-052-070900-
EAST CENTRAL WISCONSIN

CITY           SKY/WX    TMP DP  RH WIND       PRES   REMARKS
STURGEON BAY   CLOUDY    59  48  67 N16G29    29.93R
MANITOWOC      NOT AVBL
SHEBOYGAN      LGT RAIN  59  57  93 N8        29.90R FOG
$$

LMZ563-521-522-541>543-070900-
LAKESHORE

STATION/POSITION TIME  TEMP    WIND        PRES    VSBY  WAVE
                       AIR SEA DIR/SP/G                  HT/PER
                 (UTC) (F)     (DEG/KT/KT) (MB)    (MI)  (FT/S)
SHEBOYGAN LKSHOR 0700   56     360/ 13/ 13 1012.0R
KEWAUNEE LKSHORE 0700   60     360/  8/ 12 1011.2R
ALGOMA MARINA    0741          360/  9/ 13   N/A
NORTHPORT PIER   0700   60     340/ 23/ 25 1012.2R
N MID LAKE BUOY  0650   56 56  320/ 14/ 16 1011.2R         2/ 5
SISTER BAY LKSHO 0729   58      10/ 20/ 27   N/A
CHAMBERS ISLAND  0700   61     340/ 19/ 23 1012.2S
MENOMINEE LKSHOR 0700   60     350/ 16/ 19 1013.1R
$$



USA.gov is the U.S. government's official web portal to all federal, state and local government web resources and services.